SCP
0 0 0 0 0 0 0 0 0 0 0 1 1 2 2 2 2 2 3 3 4 5 6 7 9 9 10 11 12 11 12 13 13 12 12 12 13 13 12 11 9 8 7 7
0 0 0 0 0 0 0 0 0 0 1 1 2 2 2 2 2 3 3 3 4 5 6 7 8 8 9 10 11 12 14 16 16 15 15 14 14 12 10 8 8 7 7 7
0 0 0 0 0 0 0 1 1 1 1 2 2 3 2 3 3 4 4 3 4 5 6 7 7 7 7 8 9 11 13 16 17 16 16 15 13 10 8 6 6 7 7 8
0 0 0 0 0 0 1 1 1 1 2 2 3 3 3 3 4 4 4 4 4 5 5 6 6 6 6 6 7 9 11 13 15 15 14 13 10 8 7 7 7 7 8 8
0 0 0 0 0 0 1 1 1 2 2 3 3 3 3 3 4 5 5 5 6 6 6 5 5 5 6 6 6 7 9 12 15 15 13 10 7 6 7 8 8 8 7 7
0 0 0 0 1 1 1 1 1 2 2 2 2 3 3 3 4 4 4 5 7 7 6 6 5 6 7 7 7 7 9 12 14 13 11 9 7 6 7 9 10 9 8 8
0 0 0 1 1 1 1 1 1 2 2 2 2 3 3 3 3 3 3 4 6 7 6 5 5 6 7 8 7 7 8 9 9 8 7 7 8 7 7 9 10 10 10 10
0 1 1 1 1 1 1 2 2 2 2 2 2 2 2 2 2 2 2 3 5 5 5 5 5 5 6 7 7 7 6 6 5 4 5 6 8 10 9 9 8 9 10 11
1 1 1 1 2 2 2 2 2 2 2 2 2 2 2 2 2 2 2 3 5 6 6 6 6 5 5 5 6 6 5 4 3 4 4 6 8 10 10 9 8 8 9 9
1 1 1 1 1 1 2 2 2 2 2 2 2 2 2 2 2 2 3 3 5 6 7 8 8 7 5 4 5 5 5 4 4 5 5 7 10 11 11 10 9 9 10 9
1 1 1 1 1 1 1 1 1 1 1 2 2 2 2 2 2 2 2 3 4 4 5 7 7 7 6 5 5 5 6 5 5 6 7 9 12 13 11 9 8 9 11 11
1 1 1 1 1 1 1 1 1 1 1 1 2 2 2 2 1 1 2 2 2 3 4 5 5 5 5 5 5 6 7 7 6 8 11 12 14 14 10 6 5 6 8 8
1 1 1 1 1 1 1 1 1 1 1 1 1 1 1 1 1 1 1 2 2 2 3 4 4 4 4 5 5 6 7 7 8 10 14 16 17 17 13 8 4 3 3 3
0 0 1 1 1 1 1 1 1 1 1 1 1 1 1 1 1 1 1 2 2 2 3 4 5 4 4 4 4 5 5 6 8 12 16 18 18 18 17 13 8 4 2 1
0 0 1 1 1 1 1 1 1 1 1 1 1 1 1 1 1 1 1 1 2 2 3 4 5 4 4 4 4 5 5 6 8 11 15 16 17 18 17 15 10 5 2 1
0 0 0 0 1 1 1 1 1 1 1 1 1 1 2 2 2 2 2 1 2 2 2 3 4 4 4 4 5 6 6 6 8 11 13 15 16 17 16 13 9 5 3 2
0 0 0 0 0 1 1 1 1 1 0 1 1 2 2 2 2 2 2 2 2 2 2 3 3 3 3 4 5 6 6 6 7 9 11 12 14 15 13 10 8 5 3 2
0 0 0 0 0 0 0 1 1 0 0 0 1 1 2 2 2 2 2 2 2 1 2 3 3 3 3 3 4 5 5 5 6 7 8 9 10 10 8 6 5 3 2 1
0 0 0 0 0 0 0 0 0 0 0 1 1 1 1 1 1 1 2 2 1 1 2 3 3 3 3 2 3 3 4 4 4 5 5 5 5 5 4 3 3 2 2 1
0 0 0 0 0 0 0 1 1 1 1 1 1 1 1 1 1 1 1 1 1 1 2 3 4 4 3 2 2 2 2 2 2 3 3 3 3 3 2 2 2 2 2 2
0 0 0 1 1 1 1 1 1 1 1 1 1 1 1 1 1 1 1 1 1 1 1 2 4 5 5 3 2 1 1 1 2 2 3 2 2 2 2 2 2 2 2 2
1 1 1 1 1 1 1 1 1 1 1 1 1 1 1 1 1 1 1 1 1 0 1 1 3 4 4 4 3 2 2 1 1 2 2 2 2 2 2 2 2 1 1 2
1 1 1 1 1 1 1 1 1 1 1 1 1 1 1 1 1 1 0 0 0 0 0 1 1 1 2 3 3 3 2 2 2 2 2 2 2 2 1 1 1 1 1 1
1 1 0 0 0 0 0 1 1 1 1 1 1 1 1 1 1 0 0 0 0 0 0 0 0 0 1 2 3 3 2 2 2 2 2 1 1 1 1 1 1 1 1 1
1 1 0 0 0 0 0 0 1 0 0 0 0 0 0 0 0 0 0 0 0 0 0 0 0 0 0 1 1 2 2 2 2 2 2 1 1 1 1 1 1 1 1 1
1 1 0 0 0 0 0 1 0 0 0 0 0 0 0 0 0 0 0 0 0 0 0 0 0 0 0 0 1 1 1 1 1 1 1 1 1 1 1 1 1 1 1 1
1 1 0 0 0 0 0 1 0 0 0 0 0 0 0 0 0 0 0 0 0 0 0 0 0 0 0 0 0 0 0 0 0 0 0 0 0 0 0 0 1 1 1 1
Wind_Speed
9 7 7 9 10 10 12 12 12 9 8 5 2 2 2 1 1 1 1 1 1 1 1 2 3 3 3 3 3 4 5 6 7 7 7 7 8 8 8 9 9 8 8 8
9 9 9 10 10 11 12 11 11 10 8 3 1 1 1 1 1 0 1 1 1 1 1 1 2 3 3 3 3 3 4 4 4 5 6 7 7 8 8 8 8 8 9 8
10 8 10 13 10 10 10 8 9 10 6 1 1 1 1 1 1 0 1 2 1 1 1 0 1 2 3 3 3 4 3 3 3 3 4 5 6 6 7 7 7 8 8 8
9 8 14 4 0 4 7 6 5 4 2 2 2 1 1 1 1 2 2 2 1 1 1 1 1 2 2 3 3 4 3 3 3 3 3 3 4 5 6 6 6 7 7 8
9 12 12 5 3 4 7 6 3 3 2 1 0 2 2 2 3 3 3 3 2 2 2 1 1 1 2 3 3 3 4 4 3 3 3 3 4 5 4 4 5 6 6 7
10 12 12 3 2 2 6 7 2 2 2 2 3 5 1 4 4 4 4 3 3 2 2 2 2 2 2 3 3 3 4 3 3 3 4 4 4 5 4 4 5 5 5 6
12 12 8 2 1 4 9 1 2 1 1 2 2 4 3 3 3 4 4 4 4 3 3 2 2 2 3 3 3 3 3 3 3 3 4 4 4 4 4 5 5 5 5 5
9 12 6 4 2 3 3 4 1 1 1 1 2 2 1 2 3 4 4 4 4 4 3 3 2 3 3 4 3 3 3 4 4 4 5 4 4 5 5 5 5 5 5 4
5 3 5 2 2 3 3 3 2 2 2 2 3 3 3 3 3 4 4 4 4 4 4 3 3 4 5 4 4 4 4 4 4 5 5 4 5 5 5 5 6 5 4 4
5 3 1 1 2 3 3 4 4 3 3 4 4 4 4 4 4 4 4 5 4 4 4 4 4 4 4 4 4 5 5 5 4 5 5 4 4 5 5 5 5 5 4 4
7 5 4 3 2 4 4 4 4 5 5 6 6 6 6 5 5 5 5 5 5 5 5 5 5 5 5 5 4 6 6 6 6 5 5 4 5 4 5 4 3 4 4 4
6 4 5 4 5 6 6 6 6 6 7 7 7 7 7 6 6 6 6 6 6 7 7 7 6 5 5 5 5 6 6 6 5 5 4 5 5 3 1 2 0 1 3 5
6 6 7 7 7 7 7 7 7 7 7 8 7 7 7 7 6 6 7 7 7 8 8 8 7 6 6 5 5 6 7 6 5 5 4 5 5 5 3 2 2 1 2 2
5 6 7 7 7 7 7 7 7 7 7 7 6 7 6 7 7 7 8 8 8 8 8 8 7 7 6 6 6 7 7 6 6 5 5 5 5 5 4 4 3 2 2 2
5 6 7 6 6 7 7 7 7 7 7 6 6 6 6 7 8 8 8 8 8 8 8 8 8 7 6 6 7 7 7 6 5 4 4 4 4 4 4 4 3 2 2 3
5 6 6 6 6 7 7 7 7 7 7 7 7 7 7 8 8 8 8 8 8 9 8 8 8 7 6 6 6 6 5 5 5 4 4 4 3 3 4 3 3 2 2 2
6 6 6 6 6 7 7 7 7 7 7 7 7 8 8 8 8 8 8 7 7 7 7 7 7 6 6 6 7 6 5 3 4 5 4 3 3 3 3 2 2 2 2 2
6 6 6 7 6 7 7 7 7 8 8 7 7 7 8 8 8 7 7 7 6 6 6 6 6 5 5 5 5 5 4 4 3 3 2 2 2 2 2 2 2 2 2 3
4 4 5 5 6 6 6 6 7 7 7 6 7 6 6 6 6 6 6 6 6 6 5 5 4 5 4 4 4 4 4 3 2 2 2 2 2 2 2 2 2 2 2 2
3 4 4 5 5 5 5 5 5 5 5 5 5 5 5 6 5 5 5 5 5 5 5 4 5 4 4 3 4 4 4 3 3 3 2 2 2 2 2 1 1 1 1 2
3 3 3 4 4 4 4 4 4 4 4 4 4 4 4 4 5 5 5 4 3 4 4 4 4 4 4 3 4 4 3 3 3 3 3 3 2 2 2 1 2 2 2 2
3 3 3 3 4 4 4 4 3 3 3 3 4 3 3 4 4 4 4 3 3 3 4 4 3 2 3 5 4 3 3 3 3 2 2 2 2 2 2 2 2 2 2 2
3 2 3 3 4 4 4 4 4 3 3 3 3 3 4 4 4 4 3 3 3 4 4 3 3 3 4 5 3 3 3 2 2 2 2 2 2 2 2 3 2 2 2 2
3 3 3 3 3 3 4 4 4 3 3 3 3 3 3 3 3 3 3 2 3 4 3 3 3 3 5 4 3 2 2 2 2 2 2 2 2 2 2 2 2 2 2 3
3 3 3 3 3 3 4 3 3 3 3 3 4 4 3 3 3 3 3 3 3 3 2 2 1 2 3 3 2 2 1 2 2 3 2 2 2 1 1 2 2 2 2 3
3 3 3 3 3 3 3 3 2 2 3 3 3 3 3 3 3 3 2 3 3 3 3 2 2 1 2 2 2 2 2 1 2 2 1 2 2 2 2 2 2 2 2 2
2 2 2 2 3 3 3 3 2 2 3 3 3 3 3 3 3 3 3 3 2 2 2 2 2 2 2 2 2 2 2 2 1 1 1 2 2 2 2 2 2 2 2 2
Wind_Direction
262 269 254 245 243 237 243 260 269 270 269 284 315 342 6 7 20 38 50 50 42 134 142 156 168 176 182 185 182 191 202 216 222 225 225 224 223 222 221 220 220 219 222 224
245 244 245 248 248 242 244 255 260 264 263 310 29 41 0 326 334 11 35 23 24 34 103 149 180 183 175 177 177 184 203 219 224 228 225 221 220 219 219 220 222 220 222 224
244 233 242 239 238 242 244 247 256 262 279 313 263 344 320 314 304 9 21 3 358 357 337 223 210 195 180 179 177 183 197 217 221 225 221 219 220 217 220 221 220 222 223 224
246 231 243 247 333 257 250 244 263 279 292 299 319 14 1 340 352 10 4 352 338 323 315 268 205 183 195 187 187 191 201 219 222 223 226 227 224 221 223 224 224 225 226 226
243 241 243 217 205 236 240 236 244 249 247 275 319 217 160 47 358 339 336 334 332 321 312 311 280 204 193 210 205 210 217 224 227 229 233 229 223 223 225 228 229 231 230 230
240 251 253 238 113 251 245 229 180 231 228 232 242 256 64 35 347 340 336 341 336 330 325 317 294 265 230 229 231 237 240 240 238 239 240 235 230 226 226 229 231 235 233 232
242 248 252 35 98 209 236 296 78 200 234 246 282 336 8 342 331 336 337 329 323 315 309 308 292 273 260 255 254 260 254 248 246 242 242 243 241 240 233 232 231 235 236 235
243 247 243 68 172 241 359 26 11 302 285 293 326 336 322 313 320 325 324 320 317 311 305 299 284 271 267 274 281 273 260 252 250 247 249 242 236 239 236 232 230 225 221 229
273 296 50 59 26 17 347 331 327 313 312 287 285 293 301 301 305 310 315 316 315 310 304 296 279 267 265 272 274 267 258 253 253 251 248 246 237 236 236 229 235 231 225 227
254 239 253 298 317 326 327 318 316 306 295 286 287 291 293 295 298 301 303 302 304 304 301 297 294 285 270 266 264 263 258 255 248 244 241 234 235 236 239 241 242 239 237 238
247 254 256 244 286 314 315 308 301 291 286 288 290 286 285 284 285 289 292 293 293 292 289 288 285 284 280 276 270 266 265 259 255 249 245 243 243 254 252 256 265 252 247 241
268 274 276 284 294 298 295 293 295 294 292 291 288 286 284 283 283 285 287 290 288 287 287 287 284 279 278 273 266 263 263 262 258 253 243 241 239 244 262 261 203 232 268 267
297 298 295 294 287 289 290 291 291 289 289 289 289 287 283 281 281 283 284 283 284 285 286 284 280 277 278 273 265 263 266 270 269 265 253 244 241 239 236 216 182 197 234 245
286 278 275 278 285 291 291 291 290 288 287 288 287 284 282 282 282 282 283 285 286 285 284 281 277 275 277 273 263 261 263 259 256 260 260 255 249 249 246 241 228 206 156 143
268 270 278 283 283 286 288 285 283 285 289 290 290 287 285 285 284 284 286 288 284 280 280 279 275 274 275 272 264 260 262 264 259 264 264 259 254 249 248 245 243 234 194 144
276 274 278 275 277 283 285 285 285 288 292 293 291 289 286 284 285 287 288 285 282 283 286 282 282 284 283 278 273 261 254 252 258 263 259 252 248 245 247 240 232 223 216 187
272 275 280 282 283 285 287 286 287 289 287 287 290 291 289 287 284 283 286 287 289 291 293 291 289 292 287 281 276 270 265 248 222 245 250 250 248 245 245 242 230 213 194 147
276 283 286 285 286 288 290 291 289 286 286 289 289 285 284 281 281 286 290 292 291 289 293 295 294 287 280 279 274 272 267 259 251 255 255 248 255 254 244 234 221 219 210 163
282 291 296 293 294 289 288 290 290 289 287 283 284 286 288 285 281 281 285 287 285 284 290 298 294 281 279 282 282 264 265 257 243 246 238 214 224 237 241 237 227 221 218 206
294 301 306 306 305 299 297 298 299 298 294 291 291 292 292 292 289 285 282 279 282 293 301 305 295 292 287 280 272 260 253 249 238 228 229 236 236 234 238 244 234 244 246 239
308 306 311 318 324 325 323 317 310 308 309 308 300 297 299 302 299 293 287 287 302 310 303 286 276 281 283 286 252 251 248 247 243 240 234 229 227 220 213 221 233 239 238 234
318 317 319 326 333 340 340 331 325 325 329 326 322 319 315 312 312 305 300 304 306 311 289 278 280 337 324 289 258 248 237 231 237 241 246 243 227 214 215 229 242 240 231 226
320 327 335 341 346 346 345 342 339 341 341 338 336 338 338 334 326 320 321 333 321 323 300 319 7 357 305 275 270 263 259 250 245 244 244 247 240 232 227 227 230 235 240 245
338 345 347 346 341 340 342 343 346 350 343 338 345 351 341 331 331 333 339 360 356 330 325 21 21 321 284 275 277 273 268 263 258 257 245 232 235 239 251 260 259 256 246 247
342 345 347 341 330 331 335 332 338 346 343 349 355 6 355 351 343 343 345 350 6 331 331 17 336 299 287 297 290 284 284 295 299 293 277 263 252 251 260 270 270 267 267 265
338 332 340 330 331 325 325 328 336 347 347 353 358 3 6 7 4 355 347 352 360 342 331 336 342 298 304 310 309 301 290 263 239 251 278 295 294 286 276 273 269 267 268 269
315 312 311 319 325 328 331 338 343 344 350 350 348 357 1 2 6 4 1 3 357 345 341 337 340 342 339 338 336 323 311 312 308 298 284 282 282 273 261 261 271 279 281 276